Location: Arcizac
(43.0933°N, 0.0112°E)
Time: 06:19:02
(UTC+00:00)

H-2A R/B - Pass Details

Date: 14 December 2019
Orbit: 502 x 541 km, 97.3° (Epoch: 28 January)

Event Time Altitude Azimuth Distance (km) Brightness Sun altitude
Rises 17:11:44 0° 158° (SSE) 2,593 6.3 -8.3°
Reaches altitude 10° 17:13:49 10° 155° (SSE) 1,710 5.3 -8.7°
Maximum altitude 17:17:27 60° 75° (ENE) 581 2.6 -9.3°
Drops below altitude 10° 17:21:05 10° 355° (N) 1,719 5.2 -9.9°
Sets 17:23:12 0° 352° (N) 2,609 6.1 -10.2°
